Powrót do katalogu

STARLINK-2388

AktywnyŁącznośćVLEO
NORAD 47807·PAYLOAD·🇺🇸 United States

Wystrzelony Mar 11, 2021 z Cape Canaveral Space Force Station

Loading…

Następne Przeloty (najbliższe 24 godziny)

TLE

ŚwieżeSource: CelesTrak SupGP

Epoka: Sep 14, 2026, 21:56 UTC

1 47807C 21018W   26257.91437500  .00050289  00000+0  16179-2 0  2575
2 47807  53.1597  56.0890 0001393  61.9661  27.6070 15.31662361    18

Śledź STARLINK-2388 w czasie rzeczywistym z AllMySat

Download on the App Store